Tracking 35274 objects as of 10-Sep-2026
HD Live streaming from Space Station
objects crossing your sky now

SL-4 R/B


SL-4 R/B is no longer on orbit


NORAD ID: 7829
Int'l Code: 1975-046B
Launch date: May 28, 1975
Source: Commonwealth of Independent States (former USSR) (CIS)
Launch site: TYURATAM MISSILE AND SPACE COMPLEX (TTMTR)
Decay date: 1975-06-03

Note: This is a ROCKET BODY
Your satellite tracking list
Your tracking list is empty




NASA's NSSDC Master Catalog

Two Line Element Set (TLE):
1 07829U 75046  B 75153.00615067  .04364791 +19667-1 +70814-3 0  9991
2 07829 064.9753 016.2968 0052343 056.8624 303.7515 16.29030214000767
Source of the keplerian elements: AFSPC